Regional Weather Roundup
Issued by NWS Jackson, KY

Home | Current Version | Previous Version | Graphics & Text | Print | Product List | Glossary On
Versions: 1 2 3 4 5 6 7 8 9 10 11 12 13 14 15 16 17 18 19 20 21 22 23 24 25 26 27
000
ASUS43 KJKL 252010
RWRJKL

EAST KENTUCKY HOURLY WEATHER ROUNDUP
NATIONAL WEATHER SERVICE JACKSON KY
400 PM EDT MON JUL 25 2016

NOTE: "FAIR" INDICATES FEW OR NO CLOUDS BELOW 12,000 FEET WITH
NO SIGNIFICANT WEATHER AND/OR OBSTRUCTIONS TO VISIBILITY.

* THESE REPORTS ARE NOT UNDER NWS QUALITY CONTROL AND MAY NOT
  REPORT WEATHER SUCH AS PRECIPITATION AND FOG.

KYZ079-080-083-085-087-088-110-112-115-119-120-252100
...EASTERN KENTUCKY...

CITY           SKY/WX    TMP DP  RH WIND       PRES   REMARKS
JACKSON        TSTM      72  69  90 VRB6      30.04R
LONDON         MOSUNNY   93  69  45 W10       30.01F HX  98
SOMERSET*      CLOUDY    90  68  48 W12       30.01F HX  93
MONTICELLO*    PTSUNNY  N/A N/A N/A W13       30.02F
WILLIAMSBURG*  PTCLDY    90  73  58 SW6       30.03F HX  98
MIDDLESBORO*   PTSUNNY   92  72  50 W6        30.01F HX 100
HARLAN APT*      N/A     91  66  43 SW6       30.03F HX  94
PIKE CO APT*     N/A     90  74  58 CALM      30.02F HX  99
BIG SANDY APT* PTCLDY    92  74  55 NW5       30.00F HX 101
MOREHEAD APT*  CLOUDY    81  75  83 SW9       30.02S
ASHLAND*       CLOUDY    86  77  74 CALM      29.94F HX  97
$$

KYZ035-036-041-042-044-050-067-078-099-252100
...CENTRAL KENTUCKY...

CITY           SKY/WX    TMP DP  RH WIND       PRES   REMARKS
MT STERLING*   CLOUDY    79  73  83 W5        30.04R
FLEMING/MASON* CLOUDY    88  74  62 CALM      29.99F HX  97
DANVILLE*      CLOUDY    90  73  58 W3        30.02S HX  98
RICHMOND*      CLOUDY    82  72  69 SW3       30.01F
LEXINGTON      LGT RAIN  76  73  91 E8        30.03F
FRANKFORT      CLOUDY    84  74  71 SW6       29.98F HX  91
LOUISVILLE     LGT RAIN  78  72  81 W13       29.98S
LEBANON*         N/A     91  75  59 SW8       29.99F HX 102
GLASGOW*       CLOUDY    88  73  59 SW6       30.00F HX  96
BOWLING GREEN  CLOUDY    94  74  52 SW7       29.98F HX 104
$$

KYZ091>093-OHZ055-061-077-WVZ005-015-034-035-042-252100
...SOUTHERN OHIO/WEST VIRGINIA...

CITY           SKY/WX    TMP DP  RH WIND       PRES   REMARKS
COVINGTON      CLOUDY    92  73  53 N13       29.97F HX 100
COLUMBUS       PTSUNNY   90  69  50 NW15      29.95F HX  94
DAYTON         PTSUNNY   89  66  46 W15       30.00F HX  91
WILMINGTON     CLOUDY    91  71  51 NW12      29.97F HX  97
HUNTINGTON     TSTM      82  74  76 CALM      29.97F
CHARLESTON     PTSUNNY   93  72  50 W7        29.97F HX 101
PINEVILLE*       N/A     92  69  46 MISG      30.08F HX  96
BECKLEY        PTSUNNY   86  69  56 W7        30.08F HX  90
BLUEFIELD        N/A     85  68  56 VRB7      30.12F
LOGAN CO APT*    N/A     90  73  58 S6        30.02F HX  98
$$

VAZ002-007-008-TNZ017-027-036-066-071-252100
...SOUTHWEST VIRGINIA/EAST TENNESSEE...

CITY           SKY/WX    TMP DP  RH WIND       PRES   REMARKS
WISE*          PTSUNNY   86  63  45 NE6       30.12F
JONESVILLE*      N/A     90  73  58 S10       30.05F HX  98
ABINGDON*        N/A     92  64  38 NW7       30.06F HX  94
BRISTOL        MOSUNNY   96  67  38 W8        30.01F HX 100
MORRISTOWN*    PTCLDY    91  72  52 S12G18    30.01F HX  98
SEVIERVILLE*   CLEAR     84  70  61 E6        30.01F
KNOXVILLE      MOSUNNY   97  63  32 W9        29.99F HX  98
OAK RIDGE      SUNNY     96  67  38 W8        30.02F HX 100
CROSSVILLE     CLOUDY    89  70  53 W9        30.08F HX  94
NASHVILLE      LGT RAIN  88  72  58 W3        30.00F HX  94
$$

...KEY TO REMARKS...
VSB - VISIBILITY IN MILES
WCI - WIND CHILL INDEX
HX  - HEAT INDEX

$$




USA.gov is the U.S. government's official web portal to all federal, state and local government web resources and services.